Regional Weather Roundup
Issued by NWS Newport/Morehead, NC

Current Version | Previous Version | Graphics & Text | Print | Product List | Glossary Off
Versions: 1 2 3 4 5 6 7 8 9 10 11 12 13 14 15 16 17 18 19 20 21 22 23 24 25 26 27 28 29 30 31 32 33 34 35 36 37 38 39 40 41 42 43 44 45 46 47 48 49 50

307
ASUS42 KMHX 250613
RWRMHX
WEATHER ROUNDUP FOR EASTERN NORTH CAROLINA
NATIONAL WEATHER SERVICE NEWPORT/MOREHEAD CITY NC
100 AM EST SUN FEB 25 2018

NOTE: "FAIR" INDICATES FEW OR NO CLOUDS BELOW 12,000 FEET
WITH NO SIGNIFICANT WEATHER AND/OR OBSTRUCTIONS TO VISIBILITY

NCZ015>017-031-032-045>047-102-103-250700-
NORTH COAST

CITY           SKY/WX    TMP DP  RH WIND       PRES   REMARKS
EDENTON        FAIR      65  62  90 SW8       30.11R
ELIZABETH CITY FAIR      64  63  96 S10       30.10R
KITTY HAWK     FAIR     N/A N/A N/A SW6       30.10S
MANTEO         FAIR      61  60  96 SW9       30.12S

$$

NCZ045>047-081-094-103-104-250700-
CENTRAL COAST

CITY           SKY/WX    TMP DP  RH WIND       PRES   REMARKS
FRISCO         FAIR      65  64  97 SW10      30.14S

$$

NCZ095-097-098-100-101-250700-
SOUTHERN COAST

CITY           SKY/WX    TMP DP  RH WIND       PRES   REMARKS
BEAUFORT       FAIR      65  63  93 SW12      30.15S
CEDAR ISLAND   NOT AVBL
JACKSONVILLE   FAIR      66  64  93 SW8       30.13S
PINEY ISLAND   NOT AVBL
WILMINGTON     FAIR      65  64  97 S7        30.14S


$$

NCZ011>013-027>030-043-044-078>080-089-090>093-098-250700-
COASTAL PLAIN

CITY           SKY/WX    TMP DP  RH WIND       PRES   REMARKS
AHOSKIE        FAIR      64  61  89 S6        30.08S
CLINTON        FAIR      64  64  97 S3        30.12F
ELIZABETHTOWN  NOT AVBL
GOLDSBORO      FAIR      66  61  85 SW9       30.09S
GREENVILLE     FAIR      66  61  82 SW9       30.12S
HAVELOCK       NOT AVBL
KENANSVILLE    FAIR      64  63  94 SW3       30.13S
KINSTON        FAIR      66  62  87 S10       30.12S
NEW BERN       FAIR      64  63  96 SW9       30.14S
RICHLANDS      FAIR      62  61  96 S5        30.14R
ROCKY MOUNT    FAIR      65  60  84 S9        30.09S
WASHINGTON     FAIR      65  63  90 SW7       30.12R
WHITEVILLE     FAIR      63  62  97 S5        30.13S

$$

AMZ130-135-150-152-154-156-158-170-250-252-270-ANZ085-086-088-633-658-670-250700-
MARINE OBSERVATIONS

STATION/POSITION TIME  TEMP    WIND        PRES    WAVE   SWELL
                       AIR SEA DIR/SP/G            HT/PER HT/PER
                 (UTC) (F)     (DEG/KT/KT) (MB)    (FT/S) (FT/S)
CHESAPEAKE LIGHT NOT AVBL
64 E VA BEACH    0550   54 50  200/ 10/ 12 1019.5    3/ 9   3/ 9
DUCK             0542      46  200/ 12/ 15 1018.9
2 E DUCK         0600      48                N/A     2/ 9   2/11
OREGON INLET     0542      61  200/ 11/ 12 1019.9
13E OREGON INLT  0548      49                N/A     4/ 8   3/ 8
HATTERAS CG      0542      62  210/  9/ 12 1020.3
DIAMOND BUOY     0550   72 73  240/ 14/ 17 1021.0    4/10   3/10
CAPE LOOKOUT     0600          220/  9/ 12 1021.2
BEAUFORT LAB     0542      60  210/  7/  9 1020.9
30 SE NEW RVR IN 0508   71 70  220/ 12/ 16 1021.1
30 SE NEW RVR IN 0600      70                N/A     4/ 9   2/11
27 SE WRIGHTSVLE 0508   70 69  220/ 12/ 17 1021.1
5 SE WRIGHTSVLE  0508   60 58  240/  6/  8 1020.8
225 S CAPE HAT   0550   72 73  190/ 12/ 14 1023.5    5/ 9   5/ 9
41 SE CHARLESTON 0550   72     190/ 12/ 16 1021.0    4/10   3/10

$$




USA.gov is the U.S. government's official web portal to all federal, state and local government web resources and services.